Simultaneous Nadir Overpasses (SNOs) Predictions

Prediction of SNOs between LANDSAT-8 and METOP-A Satellite Orbit:

Table of predicted SNOs for the next 14.0 days since TLE Epoch: 2/9/2019
Index Date (LANDSAT-8) Time (LANDSAT-8) Lat,Lon (LANDSAT-8) SZA (LANDSAT-8 ) Date (METOP-A) Time (METOP-A) Lat,Lon (METOP-A) SZA (METOP-A ) Distance(km) Time Diff (sec)
1 02/10/2019 03:05:11 -81.44, -1.05 82.03 02/10/2019 03:04:30 -81.44, -0.98 82.03 1.21 41
2 02/10/2019 03:54:37 81.44, 166.69 97.98 02/10/2019 03:55:10 81.44, 166.71 98.00 0.34 33
3 02/12/2019 22:39:26 -81.44, 65.51 82.93 02/12/2019 22:38:44 -81.44, 65.57 82.94 1.08 42
4 02/12/2019 23:28:52 81.45,-126.77 97.07 02/12/2019 23:29:24 81.44,-126.75 97.09 0.60 32
5 02/15/2019 18:13:41 -81.43, 131.71 83.91 02/15/2019 18:12:58 -81.44, 131.71 83.92 0.75 43
6 02/15/2019 19:03:07 81.44, -60.59 96.09 02/15/2019 19:03:38 81.44, -60.62 96.11 0.82 31
7 02/18/2019 13:47:56 -81.44,-161.67 84.86 02/18/2019 13:47:12 -81.44,-161.76 84.89 1.52 44
8 02/18/2019 14:37:22 81.44, 6.01 95.14 02/18/2019 14:37:52 81.44, 5.90 95.14 1.86 30
9 02/21/2019 09:22:12 -81.43, -95.41 85.88 02/21/2019 09:21:26 -81.44, -95.25 85.87 2.77 46




NCC Satellite Simultaneous Nadir Overpasses (SNOs) Prediction Service
